#timestamp,LO_Frequency,Hit 
1504767615.4,286046996.8,N
1504767635.3,286046993.3,N
1504767655.1,286046993.3,N
1504767675.8,286046994.4,N
1504767695.7,286046990.8,P
1504767715.5,286046992.5,N
1504767735.3,286046993.7,N
1504767755.2,286046996.0,N
1504767775.9,286046996.2,N
1504767795.7,286046994.4,N
1504767815.6,286046993.6,N
1504767835.4,286046996.1,N
1504767855.2,286046997.8,N
1504767875.1,286046997.3,N
1504767876.0,286046997.3,N
1504767895.8,286046996.3,N
1504767915.6,286046994.1,N
1504767935.4,286046994.6,N
1504767955.3,286046993.7,P
1504767975.1,286046999.5,N
1504767995.9,286046997.2,N
1504768015.7,286046998.2,N
1504768035.5,286047000.2,N
1504768055.3,286047001.0,N
1504768075.2,286046996.6,N
1504768095.0,286046997.1,N
1504768095.9,286046997.1,N
1504768115.7,286046996.5,N
1504768135.6,286047000.7,N
1504768155.4,286046998.3,N
1504768175.2,286047002.4,N
1504768195.1,286047000.6,N
1504768196.0,286047000.6,N
1504768215.8,286046998.7,N
1504768235.6,286046997.0,N
1504768255.5,286046998.4,N
1504768275.3,286047004.6,N
1504768295.1,286047000.3,N
1504768315.9,286047000.6,N
1504768335.7,286046999.3,N
1504768355.5,286046998.2,N
1504768375.3,286046998.5,N
1504768395.2,286047004.3,N
1504768415.0,286047003.3,N
1504768415.9,286047003.3,N
1504768435.7,286047002.5,N
1504768455.6,286046999.8,N
1504768475.4,286047000.6,N
1504768495.2,286047001.9,N
1504768515.1,286047003.7,N
1504768516.0,286047003.7,N
1504768535.8,286047002.1,N
1504768555.6,286047000.7,N
1504768575.5,286047001.1,N
1504768595.3,286047001.0,N
1504768615.1,286046998.1,N
1504768635.9,286047002.3,N
1504768655.7,286047001.0,N
1504768675.5,286047000.1,N
1504768695.4,286047003.9,N
1504768715.2,286047004.5,N
1504768735.0,286047003.5,N
1504768735.9,286047003.5,N
1504768755.7,286047000.7,N
1504768775.6,286046996.8,N
1504768795.4,286046994.9,N
1504768815.2,286046996.2,N
1504768835.1,286046994.0,N
1504768836.0,286046994.0,N
1504768855.8,286046995.9,N
1504768875.6,286046993.8,N
1504768895.5,286046997.5,N
1504768915.3,286046995.6,N
1504768935.1,286046996.8,N
1504768955.9,286046997.1,N
1504768975.7,286046999.5,N
1504768995.5,286047001.2,N
1504769015.4,286047004.4,N
1504769035.2,286047003.7,N
1504769055.0,286047004.2,N
1504769055.9,286047004.2,N
1504769075.7,286047002.3,N
1504769095.6,286047000.1,N
1504769115.4,286047004.2,N
1504769135.2,286047001.9,N
1504769155.1,286047003.7,N
1504769156.0,286047003.7,N
1504769175.8,286047006.1,N
1504769195.6,286047006.9,N
1504769215.5,286047003.9,N
1504769235.3,286046998.4,N
1504769255.1,286047000.9,N
1504769275.9,286046997.9,N
1504769295.7,286046995.9,N
1504769315.5,286046997.1,N
1504769335.4,286047000.3,N
1504769355.2,286046999.5,N
1504769375.0,286046995.1,N
1504769375.9,286046995.1,N
1504769395.8,286046996.7,N
1504769415.6,286046992.2,N
1504769435.4,286046991.6,N
1504769455.2,286046990.0,N
1504769475.1,286046988.4,N
1504769476.0,286046988.4,N
1504769495.8,286046985.9,N
1504769515.7,286046982.6,P
1504769535.5,286046982.3,N
1504769555.3,286046984.7,N
1504769575.1,286046986.5,N
1504769595.9,286046986.9,N
1504769615.7,286046987.6,N
1504769635.5,286046984.9,N
1504769655.4,286046985.0,P
1504769675.2,286047000.7,N
1504769695.0,286047003.8,N
1504769696.0,286047003.8,N
1504769715.8,286047005.2,N
1504769735.6,286047005.1,N
1504769755.4,286046999.9,N
1504769775.3,286046997.6,N
1504769795.1,286046993.3,N
1504769815.8,286046993.7,N
1504769835.7,286046995.4,N
1504769855.5,286046993.4,N
1504769875.3,286046997.8,N
1504769895.2,286046998.9,N
1504769915.9,286047000.5,N
1504769935.7,286047001.2,N
1504769955.6,286046997.0,N
1504769975.4,286046998.2,N
1504769995.2,286046998.1,N
1504770015.0,286046999.4,N
1504770015.9,286046999.4,N
1504770035.8,286047004.1,N
1504770055.6,286047000.9,N
1504770075.4,286047001.2,N
1504770095.3,286047002.8,N
1504770115.1,286046999.0,N
1504770135.8,286046999.5,N
1504770155.7,286046996.4,N
1504770175.5,286046994.9,N
1504770195.3,286046995.9,N
1504770215.2,286046996.1,N
1504770235.9,286046994.8,N
1504770255.7,286046989.6,P
1504770275.6,286046989.8,N
1504770295.4,286046989.8,N
1504770315.2,286046990.8,N
1504770335.1,286046989.8,N
1504770336.0,286046989.8,P
1504770355.8,286047000.1,N
1504770375.6,286047000.5,N
1504770395.5,286047003.0,N
1504770415.3,286047001.9,N
1504770435.1,286047000.4,N
1504770455.9,286047001.9,N
1504770475.7,286046999.9,N
1504770495.5,286047000.8,N
1504770515.3,286047002.5,N
1504770535.2,286047002.3,N
1504770555.0,286046998.4,N
1504770555.9,286046998.4,N
1504770575.7,286046997.4,N
1504770595.6,286046996.2,N
1504770615.4,286046995.1,N
1504770635.2,286046995.3,N
1504770655.1,286046993.6,N
1504770656.0,286046993.6,N
1504770675.8,286046994.2,N
1504770695.6,286046992.0,N
1504770715.5,286046989.0,N
1504770735.3,286046986.9,P
1504770755.1,286046992.5,N
1504770775.9,286046993.8,N
1504770795.7,286046993.7,N
1504770815.5,286046992.2,N
1504770835.4,286046991.2,N
1504770855.2,286046991.5,N
1504770875.0,286046986.9,P
1504770875.9,286046986.9,P
1504770895.8,286046995.0,N
1504770915.6,286046995.2,N
1504770935.4,286046995.0,N
1504770955.3,286046998.0,N
1504770975.1,286046997.8,N
1504770976.0,286046997.8,N
1504770995.8,286046997.5,N
1504771015.7,286047000.8,N
1504771035.5,286046996.5,N
1504771055.3,286046995.4,N
1504771075.1,286046995.0,N
1504771095.9,286046999.4,N
1504771115.7,286047001.1,N
1504771135.5,286046997.7,N
1504771155.4,286046997.2,N
1504771175.2,286046994.4,N
1504771195.0,286046993.4,N
1504771195.9,286046993.4,N
